DateTime,F1_A11,F1_S11,BsB_S11,BsG_S11,BsR_S11,BbsB_S11,BbsG_S11,BbsR_S11,BaB_A11,BaG_A11,BaR_A11,T_S11,U_S11,P_S11,T1_A11
2016-05-10T00:00:00Z,0000380,20000600,,,,,,,,,,28.8,04.5,0665.3,34.7
2016-05-10T00:01:00Z,0000380,20000600,,,,,,,,,,28.8,04.5,0665.3,34.7
2016-05-10T00:02:00Z,0000380,20000600,,,,,,,,,,28.8,04.5,0665.3,34.7
2016-05-10T00:03:00Z,0000380,60000600,,,,,,,,,,28.8,04.5,0665.3,34.7
2016-05-10T00:04:00Z,0000380,40000600,0006.10,0003.16,0002.69,-000.05,0000.32,0000.40,0000.19,0000.33,-000.12,28.7,04.6,0666.0,34.7
2016-05-10T00:05:00Z,0000380,00000600,0006.06,0003.71,0002.39,0000.24,0000.73,0000.40,0000.25,0000.20,0000.51,28.7,04.5,0666.0,34.7
2016-05-10T00:06:00Z,0000380,00000600,0005.79,0003.51,0001.97,0000.78,0000.41,0000.78,0000.27,0000.02,0000.19,28.7,04.6,0666.1,34.7
2016-05-10T00:07:00Z,0000380,00000600,0005.95,0004.07,0002.07,0000.32,0000.49,0000.37,0000.32,0000.31,-000.33,28.7,04.6,0666.1,34.7
2016-05-10T00:08:00Z,0000380,00000600,0006.28,0004.29,0002.47,0000.67,0000.70,0000.62,0000.15,0000.13,0000.33,28.7,04.6,0666.1,34.7
2016-05-10T00:09:00Z,0000380,00000600,0005.12,0004.01,0001.51,-000.14,0000.97,-000.16,0000.30,0000.46,0000.48,28.7,04.6,0666.1,34.7
2016-05-10T00:10:00Z,0000380,00000600,0005.49,0003.49,0001.84,0000.62,0000.59,0000.46,0000.37,0000.06,-000.07,28.6,04.6,0666.0,34.7
2016-05-10T00:11:00Z,0000380,00000600,0005.15,0003.30,0001.77,0000.42,0000.13,0000.35,-000.11,0000.30,0000.22,28.6,04.6,0666.0,34.7
2016-05-10T00:12:00Z,0000380,00000600,0005.40,0003.09,0001.88,0000.53,-000.05,0000.24,0000.50,0000.07,0000.17,28.6,04.7,0665.9,34.7
2016-05-10T00:13:00Z,0000380,00000600,0005.85,0004.49,0002.27,0000.24,0000.43,0000.22,0000.18,0000.43,0000.01,28.5,04.6,0666.0,34.7
2016-05-10T00:14:00Z,0000380,00000600,0005.91,0003.72,0002.18,0000.74,0000.14,0000.29,0000.19,0000.18,0000.27,28.5,04.6,0665.9,34.7
2016-05-10T00:15:00Z,0000380,00000600,0006.50,0003.75,0001.93,0000.77,0000.51,0000.26,0000.42,0000.03,0000.38,28.5,04.6,0665.9,34.7
2016-05-10T00:16:00Z,0000380,00000600,0006.45,0003.47,0002.33,0000.35,0000.41,0000.27,0000.14,0000.28,-000.05,28.5,04.6,0665.9,34.7
2016-05-10T00:17:00Z,0000380,00000600,0006.43,0003.68,0001.85,0001.05,0000.81,0000.21,0000.40,0000.33,0000.39,28.5,04.6,0665.9,34.7
2016-05-10T00:18:00Z,0000380,00000600,0006.19,0003.33,0002.04,0000.83,0000.24,0000.10,0000.16,0000.25,0000.13,28.5,04.6,0665.8,34.7
2016-05-10T00:19:00Z,0000380,00000600,0006.18,0003.85,0002.27,0000.56,0000.78,0000.35,0000.20,0000.18,-000.05,28.5,04.6,0665.8,34.7
2016-05-10T00:20:00Z,0000380,00000600,0005.92,0003.64,0001.77,0000.74,0000.29,0000.50,0000.22,0000.18,0000.32,28.5,04.6,0665.8,34.7
2016-05-10T00:21:00Z,0000380,00000600,0006.74,0003.80,0002.45,0001.50,0000.67,0000.74,0000.19,0000.24,0000.30,28.5,04.7,0665.7,34.7
2016-05-10T00:22:00Z,0000380,00000600,0006.60,0003.78,0001.95,0000.43,0000.32,0000.30,0000.23,0000.19,0000.02,28.5,04.6,0665.8,34.7
2016-05-10T00:23:00Z,0000380,00000600,0006.06,0003.72,0002.29,0000.75,0000.65,0000.62,0000.37,0000.23,0000.19,28.4,04.6,0665.8,34.7
2016-05-10T00:24:00Z,0000380,00000600,0005.60,0003.80,0001.72,0001.20,0000.70,0000.00,0000.15,0000.37,0000.36,28.4,04.7,0665.7,34.7
2016-05-10T00:25:00Z,0000380,00000600,0005.63,0004.37,0002.54,0000.70,0000.40,0000.30,0000.23,0000.22,0000.24,28.4,04.7,0665.7,34.7
2016-05-10T00:26:00Z,0000380,00000600,0007.43,0004.08,0001.88,0000.64,0000.54,0000.48,0000.31,0000.10,-000.08,28.4,04.7,0665.8,34.7
2016-05-10T00:27:00Z,0000380,00000600,0006.52,0003.88,0002.58,-000.21,0000.30,0000.10,0000.37,0000.39,0000.34,28.4,04.7,0665.7,34.7
2016-05-10T00:28:00Z,0000380,00000600,0005.67,0004.21,0002.30,0000.42,0000.48,0000.24,0000.30,0000.08,0000.36,28.3,04.7,0665.7,34.7
2016-05-10T00:29:00Z,0000380,00000600,0006.61,0004.41,0002.40,0000.18,0000.45,0000.94,-000.07,0000.36,0000.16,28.3,04.8,0665.7,34.7
2016-05-10T00:30:00Z,0000380,00000600,0006.36,0003.93,0002.23,0000.14,0000.49,0000.26,0000.40,0000.26,-000.03,28.3,04.8,0665.7,34.7
2016-05-10T00:31:00Z,0000380,00000600,0005.66,0003.51,0002.64,-000.06,0000.48,0000.58,0000.27,-000.02,0000.11,28.3,04.7,0665.7,34.7
2016-05-10T00:32:00Z,0000380,00000600,0005.91,0003.92,0002.47,0000.30,0000.40,0000.50,0000.14,0000.34,0000.43,28.3,04.7,0665.6,34.7
2016-05-10T00:33:00Z,0000380,00000600,0006.20,0004.14,0001.78,0000.19,0000.45,0000.29,0000.13,0000.20,0000.02,28.3,04.7,0665.6,34.7
2016-05-10T00:34:00Z,0000380,00000600,0006.50,0003.58,0002.13,0000.94,0000.43,0000.26,0000.29,0000.10,0000.26,28.2,04.7,0665.6,34.7
2016-05-10T00:35:00Z,0000380,00000600,0006.32,0004.20,0001.94,0000.53,0000.78,0000.21,0000.39,0000.31,-000.25,28.2,04.6,0665.6,34.7
2016-05-10T00:36:00Z,0000380,00000600,0006.56,0003.74,0002.15,0000.64,0000.13,0000.27,0000.15,0000.07,0000.43,28.2,04.7,0665.6,34.7
2016-05-10T00:37:00Z,0000380,00000600,0005.44,0003.46,0002.31,0000.48,0000.02,0000.34,0000.34,0000.38,0000.41,28.2,04.7,0665.6,34.7
2016-05-10T00:38:00Z,0000380,00000600,0005.72,0003.58,0002.30,0000.62,0000.62,0000.48,0000.12,0000.22,0000.09,28.2,04.7,0665.6,34.7
2016-05-10T00:39:00Z,0000380,00000600,0005.99,0004.50,0002.45,0000.88,0000.52,0000.64,0000.34,0000.27,0000.25,28.2,04.8,0665.5,34.7
2016-05-10T00:40:00Z,0000380,00000600,0006.25,0003.64,0001.99,0000.73,0000.35,0000.14,0000.09,0000.12,-000.03,28.2,04.9,0665.5,34.7
2016-05-10T00:41:00Z,0000380,00000600,0005.54,0003.73,0002.72,0000.88,0000.48,0000.43,0000.31,0000.28,0000.29,28.2,04.9,0665.5,34.7
2016-05-10T00:42:00Z,0000380,00000600,0006.55,0003.56,0002.11,0000.27,0000.56,0000.54,0000.23,0000.04,0000.13,28.1,04.8,0665.4,34.7
2016-05-10T00:43:00Z,0000380,00000600,0006.28,0003.18,0002.03,0000.67,0000.75,0000.02,0000.28,0000.28,0000.25,28.1,04.9,0665.4,34.7
2016-05-10T00:44:00Z,0000380,00000600,0005.93,0003.86,0002.02,0000.54,0000.57,0000.30,0000.19,0000.15,0000.01,28.0,04.9,0665.4,34.7
2016-05-10T00:45:00Z,0000380,00000600,0006.21,0003.88,0002.24,0000.83,0000.22,0000.02,0000.45,0000.38,0000.42,28.0,04.9,0665.4,34.7
2016-05-10T00:46:00Z,0000380,00000600,0006.10,0003.94,0001.72,0000.11,0000.48,0000.54,0000.08,0000.28,0000.14,28.0,04.9,0665.4,34.7
2016-05-10T00:47:00Z,0000380,00000600,0006.42,0003.88,0001.61,0000.80,0000.48,0000.10,0000.19,0000.02,0000.59,28.0,04.9,0665.3,34.7
2016-05-10T00:48:00Z,0000380,00000600,0005.77,0003.52,0002.67,0000.18,-000.03,0000.53,0000.32,0000.21,-000.55,28.0,04.8,0665.3,34.7
2016-05-10T00:49:00Z,0000380,00000600,0006.49,0004.04,0002.34,0000.67,0001.11,0000.66,0000.22,0000.36,0000.25,28.0,04.8,0665.4,34.7
2016-05-10T00:50:00Z,0000380,00000600,0005.89,0004.38,0002.12,0001.31,0000.64,-000.21,0000.13,0000.19,0000.11,28.0,04.8,0665.3,34.7
2016-05-10T00:51:00Z,0000380,00000600,0005.91,0004.64,0002.35,0000.91,0000.40,0000.51,0000.38,0000.15,0000.65,27.9,04.9,0665.3,34.7
2016-05-10T00:52:00Z,0000380,00000600,0006.95,0003.95,0002.53,0000.65,0000.21,0000.61,0000.16,0000.21,-000.14,27.9,04.9,0665.3,34.7
2016-05-10T00:53:00Z,0000380,00000600,0005.80,0003.23,0001.44,0000.34,0000.25,0000.18,0000.40,0000.21,0000.24,27.8,04.9,0665.3,34.7
2016-05-10T00:54:00Z,0000380,00000600,0006.77,0003.30,0002.78,0000.46,0000.40,0000.53,0000.15,0000.15,0000.32,27.8,04.9,0665.3,34.7
2016-05-10T00:55:00Z,0000380,00000600,0006.32,0003.11,0002.12,0000.14,0000.33,0000.35,0000.42,0000.39,0000.30,27.8,04.9,0665.2,34.7
2016-05-10T00:56:00Z,0000380,00000600,0006.79,0003.38,0002.62,0000.14,0000.35,0000.10,0000.02,0000.05,0000.10,27.8,05.0,0665.2,34.7
2016-05-10T00:57:00Z,0000380,40000600,,,,,,,,,,,,0665.3,34.7
2016-05-10T00:58:00Z,0000380,60000600,,,,,,,,,,27.8,04.7,0664.3,34.7
2016-05-10T00:59:00Z,0000380,20000600,,,,,,,,,,27.8,04.8,0664.3,34.7
2016-05-10T01:00:00Z,0000380,20000600,,,,,,,,,,27.8,04.8,0664.3,34.6
2016-05-10T01:01:00Z,0000380,20000600,,,,,,,,,,27.8,04.8,0664.3,34.6
2016-05-10T01:02:00Z,0000380,20000600,,,,,,,,,,27.8,04.8,0664.3,34.6
2016-05-10T01:03:00Z,0000380,60000600,,,,,,,,,,27.8,04.8,0664.3,34.6
2016-05-10T01:04:00Z,0000380,40000600,0005.49,0003.45,0001.82,0000.89,0000.54,0000.50,0000.23,0000.20,-000.00,27.7,04.9,0665.0,34.6
2016-05-10T01:05:00Z,0000380,00000600,0004.98,0003.13,0001.77,0000.59,0000.68,0000.27,0000.33,0000.17,0000.41,27.7,04.9,0665.1,34.6
2016-05-10T01:06:00Z,0000380,00000600,0005.72,0003.23,0002.33,0000.00,0000.49,0000.50,0000.29,0000.30,-000.24,27.7,05.0,0665.0,34.6
2016-05-10T01:07:00Z,0000380,00000600,0005.09,0003.33,0001.69,0000.32,0000.64,0000.18,-000.05,0000.18,0000.52,27.7,04.9,0665.0,34.6
2016-05-10T01:08:00Z,0000380,00000600,0006.31,0003.14,0001.87,0001.13,0000.17,0000.46,0000.17,0000.32,0000.09,27.7,05.0,0665.0,34.6
2016-05-10T01:09:00Z,0000380,00000600,0005.08,0003.48,0001.83,0000.43,0000.38,0000.30,0000.47,0000.23,0000.36,27.7,04.9,0665.1,34.6
2016-05-10T01:10:00Z,0000380,00000600,0005.29,0004.05,0001.72,0000.78,0000.46,0000.32,0000.13,0000.21,0000.29,27.7,05.0,0665.1,34.6
2016-05-10T01:11:00Z,0000380,00000600,0005.11,0003.54,0002.66,0000.85,0000.41,0000.64,0000.25,0000.27,0000.10,27.7,05.0,0665.0,34.6
2016-05-10T01:12:00Z,0000380,00000600,0005.47,0003.39,0002.33,0000.59,0000.56,0000.46,0000.25,0000.24,0000.29,27.7,05.0,0665.0,34.6
2016-05-10T01:13:00Z,0000380,00000600,0005.86,0003.31,0002.16,0000.83,0000.30,0000.06,0000.42,0000.22,0000.31,27.7,05.1,0665.0,34.6
2016-05-10T01:14:00Z,0000380,00000600,0005.90,0002.92,0002.02,0000.56,0000.06,0000.06,0000.03,0000.10,-000.13,27.7,05.1,0665.0,34.6
2016-05-10T01:15:00Z,0000380,00000600,0005.62,0003.34,0002.01,0000.53,0000.48,0000.38,0000.15,0000.32,0000.03,27.6,05.1,0665.0,34.7
2016-05-10T01:16:00Z,0000380,00000600,0005.73,0003.28,0001.87,0000.89,0000.59,0000.14,0000.39,0000.23,0000.16,27.7,05.1,0665.0,34.7
2016-05-10T01:17:00Z,0000380,00000600,0005.55,0002.96,0002.14,0000.46,0000.33,0000.29,0000.41,0000.21,0000.32,27.7,05.0,0665.0,34.7
2016-05-10T01:18:00Z,0000380,00000600,0005.90,0003.35,0001.87,0000.75,0000.52,0000.43,0000.19,0000.22,0000.35,27.6,05.0,0665.0,34.7
2016-05-10T01:19:00Z,0000380,00000600,0006.47,0003.48,0002.33,0000.48,0000.48,0000.64,0000.10,0000.14,0000.09,27.6,05.1,0665.0,34.7
2016-05-10T01:20:00Z,0000380,00000600,0004.77,0003.27,0002.21,0000.85,0000.22,0000.46,0000.39,0000.12,-000.02,27.6,05.1,0665.0,34.7
2016-05-10T01:21:00Z,0000380,00000600,0003.98,0003.25,0002.24,0001.01,0000.38,0000.42,0000.14,0000.39,0000.42,27.6,05.1,0664.9,34.7
2016-05-10T01:22:00Z,0000380,00000600,0004.58,0003.06,0002.08,0000.34,0000.44,0000.22,0000.14,0000.28,0000.01,27.6,05.1,0664.9,34.7
2016-05-10T01:23:00Z,0000380,00000600,0005.08,0003.39,0001.97,0000.93,0000.29,0000.51,0000.25,-000.00,0000.30,27.6,05.1,0664.9,34.7
2016-05-10T01:24:00Z,0000380,00000600,0005.81,0003.69,0002.28,0000.45,0000.11,0000.53,0000.53,0000.33,0000.27,27.6,05.1,0664.9,34.7
2016-05-10T01:25:00Z,0000380,00000600,0004.98,0003.33,0001.76,0000.61,0000.43,0000.05,0000.05,0000.10,0000.04,27.6,05.0,0664.9,34.7
2016-05-10T01:26:00Z,0000380,00000600,0005.62,0003.28,0002.06,0001.20,0000.30,0000.24,0000.46,0000.39,0000.20,27.6,05.0,0664.9,34.7
2016-05-10T01:27:00Z,0000380,00000600,0005.17,0002.99,0002.20,0000.97,0000.62,0000.54,-000.05,0000.04,-000.04,27.6,05.0,0664.8,34.7
2016-05-10T01:28:00Z,0000380,00000600,0004.90,0003.63,0001.48,0000.83,0000.60,0000.24,0000.28,0000.24,0000.40,27.5,05.0,0664.9,34.7
2016-05-10T01:29:00Z,0000380,00000600,0005.24,0002.07,0002.15,0000.62,0000.84,0000.11,0000.47,0000.26,0000.20,27.5,05.0,0664.8,34.7
2016-05-10T01:30:00Z,0000380,00000600,0005.42,0002.61,0001.34,0000.70,0000.25,0000.35,0000.11,0000.40,0000.23,27.5,05.0,0664.8,34.7
2016-05-10T01:31:00Z,0000380,00000600,0005.31,0002.86,0002.06,0000.89,0000.05,0000.30,0000.06,0000.08,-000.01,27.5,05.0,0664.8,34.7
2016-05-10T01:32:00Z,0000380,00000600,0004.77,0003.08,0001.71,0000.00,0000.33,0000.21,0000.29,0000.03,0000.35,27.5,05.1,0664.8,34.7
2016-05-10T01:33:00Z,0000380,00000600,0005.51,0002.94,0001.76,0000.59,0000.17,0000.61,0000.32,0000.35,0000.10,27.5,05.0,0664.8,34.7
2016-05-10T01:34:00Z,0000380,00000600,0004.23,0002.54,0001.80,0000.80,0000.19,0000.43,0000.12,0000.13,0000.18,27.5,05.0,0664.8,34.7
2016-05-10T01:35:00Z,0000380,00000600,0004.80,0003.48,0001.48,0000.97,0000.35,0000.22,0000.08,0000.35,0000.20,27.5,05.0,0664.7,34.7
2016-05-10T01:36:00Z,0000380,00000600,0004.15,0002.96,0001.93,0000.48,-000.16,0000.46,0000.39,0000.27,0000.02,27.5,05.0,0664.8,34.7
2016-05-10T01:37:00Z,0000380,00000600,0004.46,0003.66,0001.90,0000.05,0000.79,0000.19,0000.17,0000.09,0000.38,27.5,05.0,0664.8,34.7
2016-05-10T01:38:00Z,0000380,00000600,0004.89,0003.32,0001.85,0000.30,0000.02,0000.05,0000.14,0000.07,-000.17,27.5,04.9,0664.8,34.7
2016-05-10T01:39:00Z,0000380,00000600,0004.41,0002.84,0001.60,0000.00,0000.62,0000.02,0000.32,0000.29,0000.12,27.5,05.0,0664.8,34.7
2016-05-10T01:40:00Z,0000380,00000600,0004.95,0002.82,0001.86,0000.77,0000.19,0000.43,0000.19,0000.20,0000.43,27.5,05.0,0664.8,34.7
2016-05-10T01:41:00Z,0000380,00000600,0005.02,0003.03,0001.53,0000.10,0000.27,0000.37,0000.12,0000.11,0000.28,27.5,04.9,0664.8,34.7
2016-05-10T01:42:00Z,0000380,00000600,0004.98,0002.63,0001.77,0000.70,0000.17,0000.22,0000.11,0000.14,-000.29,27.5,05.0,0664.7,34.7
2016-05-10T01:43:00Z,0000380,00000600,0005.63,0002.52,0001.69,0000.45,0000.52,0000.45,0000.39,0000.37,0000.38,27.5,05.1,0664.7,34.7
2016-05-10T01:44:00Z,0000380,00000600,0004.66,0002.78,0001.80,0000.61,0000.02,0000.42,0000.12,0000.11,0000.13,27.5,05.0,0664.7,34.7
2016-05-10T01:45:00Z,0000380,00000600,0004.20,0002.83,0001.45,0000.24,-000.22,0000.32,0000.66,0000.34,0000.08,27.5,05.0,0664.6,34.7
2016-05-10T01:46:00Z,0000380,00000600,0004.77,0002.84,0001.94,0000.88,0000.37,0000.70,-000.14,-000.03,0000.50,27.5,05.0,0664.6,34.7
2016-05-10T01:47:00Z,0000380,00000600,0004.82,0003.01,0001.56,0000.75,0000.08,0000.24,0000.39,0000.22,-000.04,27.5,05.0,0664.6,34.7
2016-05-10T01:48:00Z,0000380,00000600,0005.58,0002.56,0001.78,-000.11,0000.16,0000.27,0000.13,0000.18,-000.00,27.5,04.9,0664.7,34.7
2016-05-10T01:49:00Z,0000380,00000600,0004.99,0002.50,0001.51,0000.43,0000.38,0000.10,0000.13,-000.13,0000.01,27.4,05.0,0664.6,34.7
2016-05-10T01:50:00Z,0000380,00000600,0004.22,0002.86,0001.29,-000.27,-000.24,0000.43,0000.09,0000.35,0000.22,27.4,05.0,0664.6,34.7
2016-05-10T01:51:00Z,0000380,00000600,0003.94,0002.61,0001.52,0000.49,0000.11,0000.29,0000.39,0000.24,0000.12,27.4,05.0,0664.6,34.7
2016-05-10T01:52:00Z,0000380,00000600,0004.48,0002.75,0001.55,0000.72,0000.56,0000.43,0000.13,0000.09,0000.05,27.3,05.0,0664.6,34.7
2016-05-10T01:53:00Z,0000380,00010600,0005.06,0002.23,0001.47,0000.49,-000.35,-000.22,0000.22,0000.25,0000.08,27.3,05.0,0664.6,34.7
2016-05-10T01:54:00Z,0000380,00010600,0004.09,0002.05,0001.77,0000.46,0000.32,0000.27,0000.06,0000.34,0000.54,27.3,05.2,0664.5,34.7
2016-05-10T01:55:00Z,0000380,00000600,0004.20,0002.31,0001.42,0000.49,0000.25,0000.24,0000.61,0000.25,0000.08,27.3,05.2,0664.5,34.7
2016-05-10T01:56:00Z,0000380,00000600,0004.10,0002.47,0001.72,0000.80,0000.40,0000.18,0000.08,0000.26,0000.42,27.3,05.3,0664.5,34.7
2016-05-10T01:57:00Z,0000380,40000600,,,,,,,,,,,,0664.5,34.7
2016-05-10T01:58:00Z,0000380,60000600,,,,,,,,,,27.2,05.3,0663.7,34.7
2016-05-10T01:59:00Z,0000380,20000600,,,,,,,,,,27.2,05.3,0663.6,34.7
2016-05-10T02:00:00Z,0000380,20000600,,,,,,,,,,27.2,05.3,0663.6,34.6
2016-05-10T02:01:00Z,0000380,20000600,,,,,,,,,,27.2,05.3,0663.6,34.6
2016-05-10T02:02:00Z,0000380,20000600,,,,,,,,,,27.2,05.3,0663.6,34.6
2016-05-10T02:03:00Z,0000380,60000600,,,,,,,,,,27.2,05.3,0663.6,34.6
2016-05-10T02:04:00Z,0000380,40000600,0003.94,0001.98,0001.39,0000.53,0000.25,0000.80,0000.19,0000.17,0000.23,27.2,05.4,0664.3,34.6
2016-05-10T02:05:00Z,0000380,00000600,0004.13,0002.17,0001.54,0000.53,0000.49,0000.53,0000.11,0000.01,0000.02,27.2,05.4,0664.3,34.6
2016-05-10T02:06:00Z,0000380,00000600,0004.14,0002.13,0000.99,-000.08,0000.08,0000.43,0000.15,0000.21,0000.02,27.2,05.4,0664.3,34.6
2016-05-10T02:07:00Z,0000380,00000600,0004.13,0002.54,0001.51,0000.18,0000.11,0000.21,0000.22,0000.25,0000.17,27.2,05.4,0664.2,34.6
2016-05-10T02:08:00Z,0000380,00000600,0003.36,0001.77,0001.38,0000.78,0000.19,0000.48,-000.07,0000.24,-000.03,27.2,05.4,0664.3,34.6
2016-05-10T02:09:00Z,0000380,00000600,0004.17,0002.09,0001.76,0000.77,-000.05,0000.81,0000.31,0000.06,0000.45,27.2,05.5,0664.3,34.6
2016-05-10T02:10:00Z,0000380,00000600,0003.03,0002.40,0000.95,0000.69,0000.43,0000.61,0000.17,0000.10,-000.15,27.1,05.5,0664.3,34.6
2016-05-10T02:11:00Z,0000380,00000600,0003.34,0001.87,0001.07,0000.80,0000.05,0000.35,0000.27,0000.14,0000.51,27.2,05.5,0664.2,34.6
2016-05-10T02:12:00Z,0000380,00000600,0003.46,0002.51,0001.60,-000.11,0000.54,0000.80,0000.02,0000.09,-000.30,27.2,05.5,0664.2,34.6
2016-05-10T02:13:00Z,0000380,00000600,0003.76,0002.87,0001.94,0000.32,0000.68,0000.80,-000.03,0000.22,0000.03,27.1,05.5,0664.3,34.6
2016-05-10T02:14:00Z,0000380,00000600,0003.66,0002.10,0001.36,-000.08,0000.21,0000.22,0000.27,0000.09,0000.55,27.1,05.5,0664.2,34.6
2016-05-10T02:15:00Z,0000380,00000600,0004.39,0001.96,0001.38,0000.33,0000.14,0000.11,0000.08,0000.25,0000.19,27.1,05.5,0664.2,34.6
2016-05-10T02:16:00Z,0000380,00000600,0004.66,0001.85,0001.26,0000.72,-000.11,0000.46,-000.02,0000.08,-000.24,27.1,05.5,0664.2,34.6
2016-05-10T02:17:00Z,0000380,00000600,0003.26,0002.14,0001.18,0000.41,-000.03,0000.48,0000.24,0000.31,0000.05,27.1,05.6,0664.2,34.6
2016-05-10T02:18:00Z,0000380,00000600,0004.01,0002.71,0001.53,0000.81,0000.29,-000.05,0000.28,0000.08,0000.13,27.1,05.6,0664.2,34.6
2016-05-10T02:19:00Z,0000380,00000600,0002.78,0002.68,0001.91,0000.75,0000.60,0000.43,0000.23,0000.14,0000.38,27.1,05.5,0664.2,34.6
2016-05-10T02:20:00Z,0000380,00000600,0003.94,0002.47,0001.32,0000.81,0000.24,0000.48,0000.12,0000.11,-000.02,27.1,05.6,0664.2,34.6
2016-05-10T02:21:00Z,0000380,00000600,0002.76,0002.33,0001.55,0000.94,0000.10,0000.34,0000.11,0000.00,0000.25,27.1,05.5,0664.1,34.6
2016-05-10T02:22:00Z,0000380,00000600,0004.88,0001.82,0001.13,0000.61,0000.48,0000.34,0000.25,0000.25,-000.11,27.1,05.6,0664.1,34.6
2016-05-10T02:23:00Z,0000380,00000600,0003.85,0002.39,0001.61,-000.37,0000.14,0000.32,0000.09,0000.19,0000.29,27.1,05.6,0664.1,34.6
2016-05-10T02:24:00Z,0000380,00000600,0003.68,0002.40,0001.21,0000.64,0000.40,0000.37,0000.13,0000.10,-000.08,27.1,05.7,0664.1,34.6
2016-05-10T02:25:00Z,0000380,00000600,0004.18,0002.70,0001.27,0000.56,0000.10,0000.45,0000.24,0000.14,0000.25,27.1,05.7,0664.0,34.6
2016-05-10T02:26:00Z,0000380,00000600,0003.52,0002.15,0001.36,0000.57,0000.02,0000.59,0000.07,0000.03,0000.20,27.1,05.6,0664.1,34.6
2016-05-10T02:27:00Z,0000380,00000600,0003.74,0002.02,0001.63,0000.81,0000.24,0000.35,0000.15,0000.48,0000.13,27.1,05.6,0664.1,34.6
2016-05-10T02:28:00Z,0000380,00000600,0003.22,0002.59,0001.68,0000.21,0000.49,0000.40,0000.19,0000.07,0000.08,27.1,05.7,0664.1,34.6
2016-05-10T02:29:00Z,0000380,00000600,0003.19,0002.58,0001.45,0001.15,0000.46,0000.30,0000.17,-000.03,0000.55,27.1,05.7,0664.0,34.6
2016-05-10T02:30:00Z,0000380,00000600,0003.55,0001.86,0001.48,0000.81,0000.38,0000.38,0000.10,0000.15,-000.46,27.1,05.6,0664.0,34.6
2016-05-10T02:31:00Z,0000380,00000600,0003.80,0002.43,0001.09,0000.61,0000.29,0000.32,0000.26,0000.29,0000.33,27.1,05.7,0664.0,34.6
2016-05-10T02:32:00Z,0000380,00000600,0002.94,0002.27,0001.08,0000.62,0000.16,0000.40,0000.35,-000.12,-000.11,27.1,05.6,0663.9,34.6
2016-05-10T02:33:00Z,0000380,00000600,0003.31,0002.12,0001.11,0000.30,0000.71,0000.43,0000.08,0000.28,0000.34,27.0,05.5,0663.9,34.6
2016-05-10T02:34:00Z,0000380,00000600,0003.80,0002.45,0000.91,0000.75,0000.32,0000.32,-000.12,0000.10,0000.21,27.0,05.6,0663.9,34.6
2016-05-10T02:35:00Z,0000380,00000600,0003.28,0001.81,0001.74,0000.48,0000.52,0000.46,0000.37,0000.21,0000.07,27.0,05.6,0664.0,34.6
2016-05-10T02:36:00Z,0000380,00000600,0003.15,0002.84,0001.14,0000.02,0000.33,0000.26,0000.01,0000.28,0000.04,27.0,05.5,0663.9,34.6
2016-05-10T02:37:00Z,0000380,00000600,0003.49,0002.05,0001.11,0001.02,0000.17,0000.00,0000.03,-000.03,-000.03,27.0,05.6,0663.9,34.6
2016-05-10T02:38:00Z,0000380,00000600,0003.65,0002.31,0001.54,0000.83,0000.49,0000.35,0000.30,0000.13,0000.15,27.0,05.6,0663.9,34.6
2016-05-10T02:39:00Z,0000380,00000600,0002.88,0002.19,0001.57,0000.78,0000.21,0000.42,-000.01,-000.03,-000.04,27.0,05.5,0663.9,34.6
2016-05-10T02:40:00Z,0000380,00000600,0003.86,0002.88,0000.63,0000.41,0000.14,0000.19,0000.15,0000.12,0000.33,27.0,05.6,0663.8,34.6
2016-05-10T02:41:00Z,0000380,00000600,0003.31,0002.16,0001.11,0000.37,0000.19,0000.05,0000.30,0000.22,0000.07,27.0,05.5,0663.8,34.6
2016-05-10T02:42:00Z,0000380,00000600,0004.04,0003.10,0001.72,0000.46,0000.06,0000.45,0000.17,0000.18,0000.54,27.0,05.6,0663.9,34.6
2016-05-10T02:43:00Z,0000380,00000600,0004.69,0002.17,0001.12,0000.37,0000.41,0000.56,-000.06,0000.10,-000.37,27.0,05.6,0663.8,34.6
2016-05-10T02:44:00Z,0000380,00000600,0003.80,0002.56,0001.31,0001.36,0000.11,0000.56,0000.48,0000.25,0000.00,27.0,05.6,0663.9,34.6
2016-05-10T02:45:00Z,0000380,00000600,0003.67,0002.52,0001.15,0000.97,0000.33,0000.45,0000.17,0000.32,0000.51,27.0,05.6,0663.8,34.6
2016-05-10T02:46:00Z,0000380,00000600,0004.73,0001.47,0001.62,0000.54,0000.67,0000.35,0000.07,-000.08,0000.09,27.0,05.5,0663.8,34.6
2016-05-10T02:47:00Z,0000380,00000600,0003.95,0001.96,0000.94,0000.08,0000.29,0000.67,0000.09,0000.28,-000.27,27.0,05.4,0663.8,34.6
2016-05-10T02:48:00Z,0000380,00000600,0003.59,0001.95,0001.78,0000.59,0000.19,0000.69,0000.08,0000.16,0000.06,27.0,05.4,0663.8,34.6
2016-05-10T02:49:00Z,0000380,00000600,0004.45,0002.31,0001.68,0000.41,0000.17,0000.62,0000.13,-000.10,0000.36,27.0,05.5,0663.7,34.6
2016-05-10T02:50:00Z,0000380,00000600,0004.07,0002.49,0001.70,-000.37,0000.29,0000.42,0000.29,0000.22,0000.06,27.0,05.4,0663.7,34.6
2016-05-10T02:51:00Z,0000380,00000600,0003.45,0002.02,0001.50,0000.30,0000.22,0000.10,0000.11,0000.21,0000.21,27.0,05.5,0663.6,34.6
2016-05-10T02:52:00Z,0000380,00000600,0003.78,0002.31,0001.57,0000.30,0000.19,0000.18,0000.18,0000.17,-000.01,27.0,05.5,0663.7,34.6
2016-05-10T02:53:00Z,0000380,00000600,0004.17,0002.23,0001.54,0000.45,0000.05,0000.26,0000.17,0000.12,0000.38,27.0,05.5,0663.7,34.6
2016-05-10T02:54:00Z,0000380,00000600,0003.79,0002.53,0001.47,0000.62,0000.48,0000.57,0000.04,0000.08,-000.15,27.0,05.4,0663.7,34.6
2016-05-10T02:55:00Z,0000380,00000600,0005.27,0002.34,0000.89,0000.43,0000.72,0000.16,0000.21,0000.21,0000.31,27.0,05.4,0663.5,34.6
2016-05-10T02:56:00Z,0000380,00000600,0003.34,0002.58,0001.68,0000.19,0000.27,0000.06,0000.07,-000.12,-000.18,27.0,05.5,0663.6,34.6
2016-05-10T02:57:00Z,0000380,40000600,,,,,,,,,,,,0663.7,34.6
2016-05-10T02:58:00Z,0000380,60000600,,,,,,,,,,26.9,05.3,0662.8,34.6
2016-05-10T02:59:00Z,0000380,20000600,,,,,,,,,,26.9,05.3,0662.7,34.6
2016-05-10T03:00:00Z,0000380,20000600,,,,,,,,,,27.0,05.3,0662.7,34.6
2016-05-10T03:01:00Z,0000380,20000600,,,,,,,,,,27.0,05.3,0662.7,34.6
2016-05-10T03:02:00Z,0000380,20000600,,,,,,,,,,27.0,05.3,0662.7,34.6
2016-05-10T03:03:00Z,0000380,60000600,,,,,,,,,,27.0,05.3,0662.7,34.6
2016-05-10T03:04:00Z,0000380,40000600,0003.88,0002.75,0001.88,0000.48,0000.43,0000.06,0000.29,0000.29,-000.10,27.0,05.4,0663.4,34.6
2016-05-10T03:05:00Z,0000380,00000600,0004.03,0002.01,0001.21,0000.56,0000.48,0000.14,0000.18,-000.02,0000.04,27.0,05.3,0663.5,34.6
2016-05-10T03:06:00Z,0000380,00000600,0003.75,0001.79,0001.71,0000.06,0000.68,0000.46,0000.30,0000.26,0000.25,27.0,05.4,0663.6,34.6
2016-05-10T03:07:00Z,0000380,00000600,0003.56,0002.17,0001.62,0000.00,0000.44,0000.00,-000.06,0000.05,-000.02,27.0,05.4,0663.5,34.6
2016-05-10T03:08:00Z,0000380,00000600,0003.60,0002.69,0001.11,0000.16,0000.52,0000.46,0000.32,0000.32,-000.14,27.0,05.3,0663.5,34.6
2016-05-10T03:09:00Z,0000380,00000600,0003.05,0002.23,0001.71,0000.46,0000.24,0000.02,0000.09,0000.23,0000.48,27.0,05.3,0663.5,34.6
2016-05-10T03:10:00Z,0000380,00000600,0003.78,0001.98,0001.24,0000.75,-000.10,0000.16,0000.29,-000.06,-000.02,26.9,05.3,0663.5,34.6
2016-05-10T03:11:00Z,0000380,00000600,0003.67,0002.22,0001.74,0001.12,0000.19,0000.26,-000.03,0000.17,0000.09,26.9,05.3,0663.5,34.6
2016-05-10T03:12:00Z,0000380,00000600,0004.15,0002.10,0000.65,0000.59,0000.43,-000.05,0000.45,0000.08,0000.20,26.9,05.3,0663.5,34.6